sat.trackr.live / text

‹ back to catalog

STARLINK-32275

NORAD 60360 · 2024-138F

PAYLOAD ACTIVE UNKNOWN

§ Identity

Operator
Country
US
Launch date
2024-08-04
Launch site
AFWTR
Launch vehicle
Mass (kg)
RCS (m²)

Purposes: comms

External: N2YO · Heavens-Above · Gunter

§ Orbital elements

Epoch: 2026-09-21T20:32:59.498880Z

Period
94.01 min
Inclination
53.1593°
Eccentricity
0.0001204
Mean motion
15.31688027 rev/d
Perigee alt
470.0 km
Apogee alt
471.6 km
Semi-major
6,848.9 km
B*
3.4922e-5
RAAN
116.8673°
Arg perigee
65.2618°
Mean anomaly
294.8509°
Rev number
12,068

§ Raw data

STARLINK-322751 60360U 24138F   26264.85624420  .00000718  00000+0  34922-4 0  99932 60360  53.1593 116.8673 0001204  65.2618 294.8509 15.31688027120685

JSON: /api/v1/satellites/60360 · /tle

For live sub-satellite position, see the globe view (requires WebGL).

§ Visibility from observer

Set your observer location to see the next 7 days of passes ≥ 10°. The values pass through the URL so the page stays shareable.

No JS? Fill the form by hand. The geolocation button needs JavaScript.